Location: Newark
(48.1500°N, 2.9667°W)
Time: 03:41:56
(UTC+00:00)

Transit 2A - Pass Details

Date: 02 February 2020
Orbit: 600 x 959 km, 66.7° (Epoch: 16 February)

Event Time Altitude Azimuth Distance (km) Brightness Sun altitude
Rises 00:14:53 0° 330° (NNW) 2,923 - -58.8°
Reaches altitude 10° 00:18:33 10° 1° (N) 2,070 - -58.8°
Maximum altitude 00:20:29 12° 26° (NNE) 1,951 - -58.9°
Drops below altitude 10° 00:22:28 10° 50° (NE) 2,145 - -58.9°
Sets 00:26:25 0° 80° (E) 3,151 - -58.9°
